Torna al catalogo

TRIAD 1

AttivoMilitarePO
NORAD 6173·PAYLOAD·🇺🇸 United States

Lanciato Sep 2, 1972 da Vandenberg Space Force Base

Loading…

Prossimi Passaggi (prossime 24 ore)

TLE

AggiornatoSource: Space-Track

Epoca: Sep 14, 2026, 15:08 UTC

1 06173U 72069A   26257.63092795  .00000422  00000-0  97795-4 0  9993
2 06173  90.0271 208.9991 0052099  88.7664  83.8649 14.52724300843551

Traccia TRIAD 1 in tempo reale con AllMySat

Download on the App Store